Tracking 22779 objects as of 13-Apr-2021
HD Live streaming from Space Station
objects crossing your sky now

GSTAR 4

Track GSTAR 4 now!
GSTAR 4 is classified as:


NORAD ID: 20946
Int'l Code: 1990-100B
Perigee: 36,066.8 km
Apogee: 36,160.4 km
Inclination: 13.0 °
Period: 1,452.5 minutes
Semi major axis: 42484 km
RCS: 8.7599 m2 (large)
Launch date: November 20, 1990
Source: United States (US)
Launch site: FRENCH GUIANA (FRGUI)
aabbcc
Your satellite tracking list
Your tracking list is empty




NASA's NSSDC Master Catalog

Two Line Element Set (TLE):
1 20946U 90100B   21103.36912234  .00000047  00000-0  00000+0 0  9998
2 20946  12.9914  23.5043 0011010 338.1944 215.2891  0.99141568105547
Source of the keplerian elements: AFSPC